Regional Weather Roundup
Issued by NWS

Home | Current Version | Previous Version | Graphics & Text | Print | Product List | Glossary On
Versions: 1 2 3 4 5 6 7 8 9 10 11 12 13 14 15 16 17 18 19 20 21 22 23 24 25 26 27
000
ASUS45 KBOU 260907
RWRCO

WEATHER ROUNDUP FOR COLORADO
NATIONAL WEATHER SERVICE DENVER/BOULDER CO
300 AM MDT THU MAY 26 2016

NOTE: "FAIR" INDICATES FEW OR NO CLOUDS BELOW 12000 FEET WITH NO
SIGNIFICANT WEATHER AND/OR OBSTRUCTIONS TO VISIBILITY.

COZ001>005-013-030-031-261000-
...NORTHWEST COLORADO...

CITY           SKY/WX    TMP DP  RH WIND       PRES   REMARKS
CRAIG          FAIR      35  30  82 CALM      30.06S
HAYDEN         FAIR      39  27  60 CALM      30.06S
MEEKER         FAIR      40  27  59 E5        30.05S
MOUNT WERNER   NOT AVBL
STEAMBOAT SPGS FAIR      36  27  70 CALM      30.07S
WALDEN         FAIR      30  23  74 SE8       30.13S WCI  23
$$

COZ006>008-011-261000-
...WEST CENTRAL VALLEYS...

CITY           SKY/WX    TMP DP  RH WIND       PRES   REMARKS
GRAND JUNCTION FAIR      51  28  41 CALM      29.90F
MONTROSE       FAIR      52  22  30 S8        29.99S
EAGLE          FAIR      36  23  60 E7        30.08S
RIFLE          FAIR      41  29  62 SE6       29.99S
DELTA          FAIR      53  22  30 N7        29.96R
NUCLA          FAIR      57   9  14 MISG      30.00F
$$

COZ017>023-064>068-261000-
...SOUTHWEST COLORADO...

CITY           SKY/WX    TMP DP  RH WIND       PRES   REMARKS
DURANGO        CLOUDY    45  27  49 VRB3      30.04S
CORTEZ         FAIR      44  26  49 E6        29.99F
PAGOSA SPRINGS MOCLDY    53  19  26 CALM      30.10F
TELLURIDE      FAIR      43  17  35 CALM      30.15F
WOLF CREEK PAS MOCLDY    30  21  69 SW21G29   30.28F WCI  17
$$

COZ009-010-012-014-032>034-037-058>063-261000-
...CENTRAL COLORADO...

CITY           SKY/WX    TMP DP  RH WIND       PRES   REMARKS
ASPEN          MOCLDY    40  17  39 SW7       30.07F
BUENA VISTA    FAIR      39  12  33 N3        30.10S
COPPER MTN     NOT AVBL
BERTHOUD PASS  FAIR      28  19  69 SE13G18   30.27F WCI  18
COTTONWOOD PAS FAIR      45   3  18 W10       30.16F
GUNNISON       FAIR      37  18  44 N6        30.13S
KREMMLING      FAIR      32  23  69 CALM      30.11S
LEADVILLE      FAIR      25  10  53 CALM      30.16F
MONARCH PASS   CLOUDY    34  12  40 W12       30.36F WCI  25
SALIDA         FAIR      44  19  36 CALM      30.16F
SUNLIGHT       CLOUDY    39  14  35 CALM      30.23S
WILKERSON PASS FAIR      36  21  55 SE7       30.26S
$$

COZ069>075-261000-
...SAN LUIS VALLEY/SANGRE DE CRISTO MOUNTAINS...

CITY           SKY/WX    TMP DP  RH WIND       PRES   REMARKS
ALAMOSA        FAIR      44  27  51 N3        30.08F
LA VETA PASS   FAIR      39  25  56 S6        30.18S
SAGUACHE       CLOUDY    46  18  31 N7        30.11S
$$

COZ035-036-038>040-261000-
...NORTHERN COLORADO FRONT RANGE...

CITY           SKY/WX    TMP DP  RH WIND       PRES   REMARKS
DENVER INTL AP FAIR      46  41  82 SW5       30.02S
DMNS CITY PARK   N/A     49  40  71 W1G10     30.01F
AURORA         PTCLDY    45  41  88 SW5       30.03F
FRONT RANGE AP NOT AVBL
ERIE MUNI ARPT FAIR      45  41  88 CALM      30.01F
BOULDER MUN AP CLOUDY    54  37  54 CALM      30.01F
CENTENNIAL     FAIR      46  40  79 SW6       30.03F
BROOMFIELD     FAIR      52  39  62 NW5       30.03S
FORT COLLINS   FAIR      48  39  71 S6        30.01F
LONGMONT       FAIR      46  41  80 CALM      30.03F
$$

COZ041-046-047-076>085-087-088-261000-
...PIKES PEAK/PALMER DIVIDE AND SOUTHERN FOOTHILLS...

CITY           SKY/WX    TMP DP  RH WIND       PRES   REMARKS
COLO. SPRINGS  MOCLDY    53  40  61 N10       30.05R
A. F. ACADEMY  FAIR      48  41  76 N12       30.04R
SCHRIEVER AFB  NOT AVBL
ELLICOTT       MOCLDY   N/A N/A N/A NE24G30   29.98S
FALCON         FAIR      48  39  72 N3G20     30.07R
FORT CARSON    FAIR      54  39  57 N17       29.99R
LIMON          CLOUDY    50  40  68 CALM      30.00R
MONUMENT HILL  FAIR      39  37  93 W9        30.08F
TRINIDAD       FAIR      48  20  32 SW13      29.95F
$$

COZ042>045-048>051-090-091-261000-
...NORTHEAST COLORADO...

CITY           SKY/WX    TMP DP  RH WIND       PRES   REMARKS
GREELEY ARPT   FAIR      45  41  87 NW5       30.00F
AKRON          FAIR      52  39  61 E7        29.96F
BURLINGTON     CLOUDY    56  46  69 NE7       29.95S
WRAY           NOT AVBL
STERLING       FAIR      50  45  81 CALM      29.93S
HOLYOKE        NOT AVBL
FORT MORGAN    FAIR      46  39  76 W8        29.99R
$$

COZ086-089-092>099-261000-
...SOUTHEAST COLORADO...

CITY           SKY/WX    TMP DP  RH WIND       PRES   REMARKS
PUEBLO         FAIR      59  40  49 N12       29.93S
LA JUNTA       FAIR      54  44  69 N9        29.89S
LAMAR          FAIR      46  41  82 N5        29.83F
SPRINGFIELD      N/A     51  22  31 SW7       29.86S
$$




USA.gov is the U.S. government's official web portal to all federal, state and local government web resources and services.